AirNav   ProFlight Series 2 Aviation Headset
 
 1419 users online  

0MU6 Bradbury-Rolf Memorial Heliport
Higginsville, Missouri, USA

GOING TO HIGGINSVILLE?


FAA INFORMATION EFFECTIVE 16 JULY 2020

Location

FAA Identifier: 0MU6
Lat/Long: 39-04-25.4400N 093-44-09.2200W
39-04.424000N 093-44.153667W
39.0737333,-93.7358944
(estimated)
Elevation: 815 ft. / 248 m (estimated)
Variation: 04E (1995)
Time zone: UTC -5 (UTC -6 during Standard Time)
Zip code: 64037

Heliport Operations

Heliport use: Private use, MEDICAL
Activation date: 09/1996
Control tower: no
ARTCC: KANSAS CITY CENTER
FSS: COLUMBIA FLIGHT SERVICE STATION
Attendance: UNATNDD
Wind indicator: yes
Segmented circle: no
Lights: FOR FLOOD LGTS CALL 660-584-3832.

Heliport Communications

WX AWOS-3 at RCM (18 nm S): 119.575 (660-422-7010)

Nearby radio navigation aids

VOR radial/distance  VOR name  Freq  Var
ANXr087/18.3NAPOLEON VORTAC114.0007E
BQSr166/34.0BRAYMER VOR/DME111.2003E

Heliport Services

Runway Information

Helipad H1

Dimensions: 60 x 60 ft. / 18 x 18 m
Surface: concrete
Runway edge lights: FLD
Runway edge markings: MARKED WITH LETTER H.
Latitude: 39-04.424000N
Longitude: 093-44.153667W
Elevation: 815.0 ft.
Traffic pattern: leftleft

Heliport Ownership and Management from official FAA records

Ownership: Privately-owned
Owner: FAMILY PRACTICE ASSOC
1200 W 22ND
HIGGINSVILLE, MO 64037
Phone (660) 584-7751
Manager: ROD KIRCHHOFF
850 WILLOW CREEK LN
HIGGINSVILLE, MO 64037
Phone (816) 565-3685

Additional Remarks

A52-H1 30-40 FT PLINES MKD E & S OF HELIPAD.
FOR CD CTC WHITEMAN APCH AT 660-687-3132. WHEN WHITEMAN APCH IS CLSD, CTC KANSAS CITY ARTCC AT 913-254-8508.

Instrument Procedures

There are no published instrument procedures at 0MU6.

Some nearby airports with instrument procedures:

KHIG - Higginsville Industrial Municipal Airport (3 nm E)
KRCM - Skyhaven Airport (18 nm S)
KSZL - Whiteman Air Force Base (22 nm SE)
3GV - East Kansas City Airport (23 nm W)
KMHL - Marshall Memorial Municipal Airport (25 nm E)
 
Loc | Ops | Rwys | IFR | FBO | Links
Com | Nav | Svcs | Stats | Notes
Area around 0MU6 (Bradbury-Rolf Memorial Heliport)
 
Road maps at: MapQuest Bing Google
 
Aerial photo
No photo
 
Sectional chart

 
Airport distance calculator
Flying to Bradbury-Rolf Memorial Heliport? Find the distance to fly.

From to 0MU6

Sunrise and sunset
Times for 07-Aug-2020
 Local
(UTC-5)
 Zulu
(UTC)
Morning civil twilight05:5410:54
Sunrise06:2311:23
Sunset20:1801:18
Evening civil twilight20:4701:47

Current date and time
Zulu (UTC)  07-Aug-2020 15:22:37
Local (UTC-5)  07-Aug-2020 10:22:37
 
METAR
KRCM 
18nm S 
071455Z AUTO RMK AO2 TSNO PWINO
KSZL 
23nm SE 
071456Z 18010KT 10SM SCT035 BKN070 24/20 A3005 RMK AO2A LTG DSNT SW SLP172 T02410204 53012
KMHL 
25nm E 
071455Z AUTO 16009KT 10SM SCT044 23/19 A3010 RMK AO2 LTG DSNT S
KLXT 
30nm W 
071453Z AUTO 10SM FEW028 BKN065 BKN080 24/19 A3006 RMK AO2 SLP171 T02390194 51009
KGPH 
31nm NW 
071455Z AUTO 15008KT 10SM BKN036 BKN050 OVC065 22/20 A3005 RMK AO2 LTG DSNT S
KDMO 
34nm SE 
071453Z AUTO 19011KT 10SM BKN049 BKN055 BKN085 24/19 A3010 RMK AO2 SLP187 T02440189 53014
TAF
KSZL 
23nm SE 
071225Z 0712/0817 16010KT 9999 BKN030 QNH3001INS TEMPO 0714/0717 15012G18KT 4800 -TSRA OVC015CB BECMG 0716/0717 15012G18KT 9999 BKN030 QNH2998INS TEMPO 0722/0724 18012KT 8000 -SHRA OVC030 BECMG 0805/0806 18006KT 9999 BKN050 QNH2997INS TX28/0722Z TN21/0712Z
NOTAMs
Click for the latest NOTAMs
NOTAMs are issued by the DoD/FAA and will open in a separate window not controlled by AirNav.

 

 
 

Would you like to see your business listed on this page?

 If your business provides an interesting product or service to pilots, flight crews, aircraft, or users of the Bradbury-Rolf Memorial Heliport, you should consider listing it here.  To start the listing process, click on the button below
 
Add a business
 

Other Pages about Bradbury-Rolf Memorial Heliport

Update a link
 
Copyright © AirNav, LLC. All rights reserved. Privacy Policy  Contact